Vorticity
nan nan nan nan nan nan nan nan nan nan nan nan nan nan nan nan nan nan nan nan nan nan nan nan nan nan nan nan nan nan nan nan nan nan nan nan nan nan nan nan nan nan nan nan nan nan nan nan nan nan nan nan nan nan
nan 11 11 10 10 10 13 14 10 7 8 9 9 8 7 8 10 19 17 7 9 8 2 12 12 10 4 9 16 8 8 10 13 16 9 8 10 11 8 12 10 6 11 12 8 12 11 6 14 20 9 8 8 nan
nan 9 10 10 11 12 13 13 11 8 9 10 9 8 7 7 10 14 13 13 13 13 11 16 15 8 6 4 9 8 12 16 10 5 12 15 9 10 11 11 11 10 5 5 10 11 10 6 6 7 11 9 8 nan
nan 11 12 11 10 11 13 14 10 8 9 10 10 8 7 8 10 13 12 10 14 12 17 15 12 16 14 9 5 7 13 7 12 12 9 9 9 11 10 10 13 11 14 11 8 5 10 12 9 7 7 9 10 nan
nan 11 12 12 11 11 13 15 11 9 10 10 10 8 7 8 14 16 15 10 9 10 13 15 18 11 9 10 11 10 5 7 7 11 13 10 11 10 10 9 10 10 10 13 13 14 13 10 11 10 7 10 10 nan
nan 11 11 12 13 12 16 16 10 9 11 10 10 8 8 8 15 21 19 8 4 11 12 8 13 15 11 12 12 10 9 9 8 8 11 13 11 6 14 13 10 6 6 16 11 7 12 20 21 12 10 10 9 nan
nan 13 12 11 13 15 19 12 7 9 11 10 10 9 9 11 10 9 10 6 10 16 15 12 12 11 10 11 11 11 10 9 9 10 13 11 12 10 11 7 6 13 8 1 8 12 15 21 18 14 15 12 11 nan
nan 14 13 13 13 19 18 8 4 9 11 10 8 10 12 14 15 18 13 6 8 13 11 13 14 14 10 6 10 12 13 11 11 6 11 16 10 10 10 9 5 10 12 9 12 13 15 18 15 15 14 11 7 nan
nan 17 15 15 20 20 10 5 8 11 10 11 9 14 18 19 16 15 15 13 8 9 14 14 8 15 11 9 10 12 11 8 11 15 13 11 9 8 8 7 4 8 12 18 22 12 7 15 19 14 10 11 10 nan
nan 18 18 20 18 10 8 7 9 10 11 11 16 17 10 15 16 8 8 10 12 12 11 9 10 16 8 7 12 11 11 12 11 13 11 9 11 12 11 10 10 8 15 16 17 18 9 3 11 16 13 12 9 nan
nan 19 18 16 9 5 5 9 12 12 13 12 9 8 14 10 8 8 11 12 10 11 15 12 12 6 14 13 11 8 10 11 13 16 9 9 12 17 19 9 9 12 14 17 15 13 12 7 3 11 14 9 10 nan
nan 15 12 8 8 8 8 8 8 4 1 11 15 13 10 10 12 10 12 13 8 11 15 15 14 11 11 12 10 11 11 12 15 10 8 10 15 13 11 11 10 15 13 10 12 15 15 17 17 4 7 11 12 nan
nan 9 8 8 8 8 9 13 7 2 14 17 13 12 9 10 10 14 11 9 12 14 13 12 8 10 14 15 12 12 12 11 13 11 12 12 21 19 7 5 8 12 10 14 21 12 13 16 6 14 16 9 10 nan
nan 13 15 13 11 10 10 12 12 12 17 15 9 10 15 7 8 11 6 12 11 11 17 11 10 8 10 10 15 12 11 12 12 14 8 11 9 8 14 17 13 10 10 18 20 9 6 12 16 19 12 15 12 nan
nan 15 21 14 16 23 19 11 9 10 12 14 10 11 11 2 8 15 13 8 20 11 -2 16 18 13 9 9 12 14 12 9 12 13 12 13 11 10 6 9 14 13 15 15 14 15 7 11 12 12 12 9 11 nan
nan 18 14 10 16 23 18 9 9 10 12 12 11 9 9 11 13 17 11 -1 10 20 13 7 10 13 11 14 13 12 10 7 9 14 18 17 12 10 12 9 10 14 10 6 9 12 15 13 10 12 14 14 12 nan
nan 22 11 8 10 11 8 12 13 8 9 12 13 10 6 8 10 10 11 15 11 14 12 12 10 12 14 13 12 10 8 4 15 14 9 13 12 10 11 12 7 11 12 13 12 12 20 11 7 8 11 10 8 nan
nan 12 9 7 10 12 13 10 9 15 12 8 9 10 12 13 10 8 11 18 13 13 13 14 14 12 11 9 8 12 12 10 11 12 12 11 8 7 8 10 12 9 10 14 8 11 13 15 16 14 11 16 19 nan
nan 9 10 9 11 15 17 13 9 12 14 13 12 12 10 10 14 17 19 17 11 11 11 11 14 12 9 11 12 12 9 15 16 13 8 7 9 9 12 11 11 8 11 13 11 15 10 13 14 14 14 17 23 nan
nan 18 17 17 11 10 12 12 10 8 9 10 16 14 9 14 14 15 16 6 11 16 15 11 11 11 16 17 15 6 6 10 14 17 14 13 11 8 7 11 14 15 18 18 11 8 14 14 12 11 11 12 16 nan
nan 19 16 14 9 6 9 18 12 8 10 9 10 13 13 15 12 9 12 14 13 11 11 16 17 10 12 10 12 15 12 11 11 14 19 16 8 13 15 10 8 13 16 12 13 14 16 12 10 12 13 9 6 nan
nan 12 12 11 8 13 12 10 3 8 15 14 14 16 18 15 11 11 12 12 13 14 14 13 15 16 11 10 10 12 16 12 15 16 12 11 11 7 10 15 14 11 14 13 10 11 15 11 10 12 8 15 13 nan
nan 14 11 11 10 11 12 13 14 11 9 10 14 17 17 12 13 13 11 13 14 15 14 14 14 14 12 11 10 10 7 12 14 12 12 11 15 11 10 12 12 12 12 8 9 14 14 11 8 10 12 8 14 nan
nan 11 15 14 11 8 13 14 11 13 14 11 4 11 16 11 12 16 12 14 14 13 14 13 10 8 11 13 10 10 7 8 13 13 14 13 10 8 12 13 12 14 12 12 9 12 11 11 18 13 13 14 10 nan
nan 14 15 10 14 13 13 18 12 7 7 14 19 15 8 13 15 14 14 15 13 11 11 9 12 11 9 11 11 11 14 14 11 9 8 11 15 12 8 7 10 16 18 10 10 13 10 10 10 11 9 12 15 nan
nan 13 9 13 14 9 5 8 18 13 13 16 20 12 10 11 15 15 18 15 15 14 9 11 10 8 12 13 14 13 11 12 14 13 13 9 11 13 11 12 13 10 7 13 14 11 12 12 14 15 16 13 7 nan
nan 15 9 7 8 10 8 11 17 11 11 16 14 11 13 11 12 13 14 16 13 12 14 16 15 11 14 13 10 14 15 13 13 13 11 12 12 11 11 16 14 11 16 16 12 10 9 11 12 10 13 13 13 nan
nan 11 16 14 9 11 11 7 6 16 18 13 12 12 12 13 15 15 12 14 15 14 13 13 15 19 14 13 11 11 10 11 16 13 9 12 10 9 12 14 8 8 12 11 13 14 17 14 10 11 10 13 13 nan
nan 13 8 5 11 13 13 15 12 13 13 12 17 17 10 10 16 16 14 13 15 12 12 12 11 12 12 11 11 12 12 11 10 11 10 10 12 12 10 10 11 10 7 7 8 12 10 8 10 11 13 10 11 nan
nan 12 13 14 13 11 8 5 9 17 11 13 13 10 18 17 15 12 13 11 11 13 13 13 11 10 10 10 11 10 10 12 12 12 11 12 16 13 12 11 10 13 13 11 7 7 10 10 10 9 12 14 12 nan
nan 13 12 10 11 11 12 12 12 9 10 18 13 14 12 12 14 13 13 12 11 11 13 11 11 11 11 11 12 11 11 12 9 7 12 18 21 15 13 11 11 11 9 8 14 15 14 10 10 14 11 13 10 nan
nan 11 13 13 12 13 11 13 17 16 10 10 7 14 13 12 16 15 12 11 12 12 12 10 13 12 11 13 12 8 13 18 16 15 15 15 15 14 11 11 12 12 13 11 10 14 10 9 8 14 14 14 11 nan
nan nan nan nan nan nan nan nan nan nan nan nan nan nan nan nan nan nan nan nan nan nan nan nan nan nan nan nan nan nan nan nan nan nan nan nan nan nan nan nan nan nan nan nan nan nan nan nan nan nan nan nan nan nan
CAPE
2 2 3 2 3 2 1 1 0 0 0 0 0 0 0 0 0 0 1 0 55 219 4 0 0 0 0 1 58 0 0 0 0 0 19 493 29 68 1 34 139 38 178 212 36 157 318 0 0 0 2 0 0 0
4 4 3 2 1 2 1 2 0 0 0 0 0 0 0 0 0 0 2 0 0 2 43 0 0 0 0 0 5 0 0 0 2 4 0 49 1 5 4 101 0 60 35 501 160 377 178 1 1 0 0 0 0 0
4 2 3 2 1 2 0 1 0 0 0 0 0 0 0 0 0 0 0 0 0 0 2 0 0 0 0 0 0 14 26 0 0 0 3 15 33 14 27 55 30 22 0 16 83 68 74 70 7 0 0 0 0 0
4 3 3 2 3 2 0 1 0 0 0 0 0 0 0 0 0 0 0 2 0 4 1 11 0 0 0 0 0 0 2 0 0 0 5 22 19 23 51 33 338 182 65 13 18 3 3 0 4 0 0 0 0 0
2 3 2 3 4 1 0 1 0 0 0 0 0 0 0 0 0 0 0 0 0 64 328 82 0 0 0 0 0 0 2 1 8 3 8 20 9 18 32 23 232 85 113 440 473 112 160 114 26 14 0 0 0 0
1 1 0 2 2 1 0 0 0 0 0 0 0 0 0 0 0 0 20 0 0 0 2 31 74 0 0 0 0 0 10 10 2 12 11 45 39 25 55 75 48 109 67 209 250 352 287 113 214 28 9 5 0 0
2 2 1 2 2 0 1 0 0 0 0 0 0 0 0 0 0 0 18 0 0 0 45 130 28 1 0 0 2 18 21 5 14 13 18 42 159 12 18 32 0 0 31 59 242 145 263 240 84 9 0 8 4 4
2 2 2 1 1 1 0 0 0 0 0 0 0 0 0 0 0 0 0 0 0 0 77 92 226 215 0 7 11 11 15 24 27 28 129 212 33 21 50 24 61 39 64 109 142 138 81 246 88 8 4 23 12 1
1 2 2 1 0 1 0 0 0 0 0 0 0 0 0 0 21 6 0 0 0 0 323 166 294 184 70 85 55 100 76 191 68 161 318 171 118 10 22 38 122 115 99 206 245 107 25 19 33 27 6 20 34 32
0 0 1 1 1 0 0 0 0 0 0 0 0 0 130 76 0 0 1 7 3 11 31 243 239 473 247 177 573 286 272 226 213 172 135 186 256 81 96 150 208 116 131 135 160 96 136 118 73 59 69 74 90 37
0 0 1 1 0 0 0 0 0 0 0 0 6 83 65 0 0 22 12 8 10 78 138 152 276 336 404 366 568 390 250 226 180 182 90 173 73 46 104 224 166 167 125 137 241 170 184 2 25 29 3 102 116 115
0 0 0 0 0 0 0 0 0 0 21 11 27 35 21 15 12 31 33 35 83 230 420 286 351 253 590 317 558 220 102 105 50 23 26 37 22 110 122 37 54 158 96 90 176 215 125 93 111 303 165 184 145 266
0 0 0 0 0 0 0 0 0 0 0 17 5 26 29 22 30 24 23 189 341 383 475 469 575 885 979 685 450 190 64 35 27 22 303 13 116 292 147 94 19 60 107 386 308 319 297 316 268 216 158 192 226 49
0 0 0 0 0 0 0 0 0 0 0 7 15 0 5 21 57 183 361 514 478 459 230 595 730 800 608 92 326 25 51 27 14 19 8 128 521 178 295 131 76 88 215 180 361 262 76 59 227 455 363 249 302 34
0 0 0 0 0 0 0 0 0 0 0 5 1 0 1 0 25 154 424 321 323 381 421 838 856 512 331 220 79 15 16 11 17 14 37 411 213 271 283 214 131 97 81 122 20 15 58 33 36 100 139 64 50 84
0 0 0 0 0 0 0 0 0 0 0 0 0 0 0 1 18 46 482 320 331 582 709 815 452 370 181 16 6 7 8 4 8 27 233 179 256 217 153 75 23 9 27 26 39 31 23 37 28 30 45 55 55 80
0 2 0 0 0 0 0 0 1 1 0 0 0 0 0 0 0 0 0 0 28 539 585 430 268 133 0 2 6 17 6 20 61 101 264 410 208 86 25 1 11 17 18 32 27 36 111 76 70 88 81 122 80 75
7 0 0 0 0 0 1 0 3 12 2 0 0 0 0 0 0 0 9 184 479 727 643 282 155 49 0 2 6 1 8 42 96 134 390 204 132 56 14 14 9 19 6 17 12 52 56 84 211 186 92 11 5 10
0 0 0 0 0 0 0 9 0 4 3 4 2 1 0 0 1 3 53 985 779 515 352 99 1 0 1 0 16 25 73 94 111 164 167 102 32 0 0 17 20 17 20 30 57 61 63 187 160 11 10 51 29 57
0 0 0 0 0 0 5 10 30 10 0 1 10 6 17 63 137 259 548 150 309 782 337 128 48 3 19 14 9 38 89 61 49 76 115 65 48 19 0 0 0 29 40 120 35 7 22 179 67 12 33 12 6 63
0 0 0 0 0 0 15 20 43 7 4 1 0 13 130 446 17 0 128 671 739 512 257 159 26 21 23 31 87 274 20 104 44 4 2 26 3 4 18 20 22 22 27 13 11 12 23 7 19 21 1 0 33 204
5 0 6 3 41 36 15 8 0 13 2 2 0 15 95 309 205 573 833 702 461 277 250 224 540 387 367 163 111 85 96 2 0 0 0 0 8 4 1 9 17 25 27 21 13 46 138 319 127 66 10 0 0 0
0 0 4 35 42 55 10 4 12 34 21 99 431 335 434 173 26 358 707 403 196 137 501 408 312 296 465 177 57 21 3 0 0 0 0 0 0 0 6 10 23 27 37 31 33 47 131 29 66 147 77 101 85 43
0 13 36 33 50 11 25 38 108 81 193 279 281 130 314 239 926 599 185 39 104 84 68 45 32 32 42 57 30 8 0 0 0 0 0 1 1 0 7 6 10 23 33 36 61 61 79 93 21 70 105 39 86 31
8 0 0 0 71 32 6 26 104 235 234 204 234 281 386 761 420 212 122 17 45 25 7 34 25 31 22 45 3 0 0 0 0 0 0 0 0 2 8 3 6 15 29 22 48 55 55 60 46 61 25 13 24 54
28 8 0 20 24 7 40 24 132 118 140 146 219 574 473 15 2 69 108 16 21 27 28 45 24 58 44 12 0 0 0 0 0 0 0 0 1 10 10 10 15 3 14 17 21 25 28 32 43 48 40 19 1 14
7 1 8 0 16 27 46 58 50 39 30 85 419 371 248 89 64 90 29 21 23 28 38 52 50 79 1 0 0 0 0 0 0 0 0 0 0 0 7 14 11 0 6 8 13 17 12 18 19 16 29 27 29 45
24 17 27 40 24 19 8 24 27 18 29 232 326 223 47 95 128 57 21 4 9 23 12 3 0 0 0 0 0 0 0 0 0 0 0 0 0 0 0 0 0 0 0 0 0 20 14 17 17 14 16 14 29 36
2 49 43 28 37 45 26 16 27 53 580 307 314 185 165 400 85 17 0 0 0 0 0 0 0 0 0 0 0 0 0 0 0 0 0 0 0 0 0 0 0 0 0 0 0 0 0 0 0 1 17 20 33 40
20 29 26 19 6 6 9 12 22 49 337 258 577 442 423 341 120 1 0 0 0 0 0 0 0 0 0 0 0 0 0 0 0 0 0 0 0 0 0 0 0 2 2 1 0 0 0 0 0 0 4 28 43 54
24 24 10 5 2 1 0 0 8 72 277 458 531 488 244 202 94 2 0 0 0 0 0 0 0 0 0 0 0 0 0 0 0 0 0 0 0 0 0 0 0 0 0 7 8 17 10 5 15 26 30 28 17 18
9 5 3 0 0 0 11 32 165 823 292 973 693 659 259 336 236 111 26 0 0 2 0 0 2 1 0 1 1 0 0 0 0 0 0 0 0 0 0 0 0 0 0 1 2 10 8 4 17 12 25 15 36 27
0 0 0 0 0 2 24 133 469 784 705 751 683 589 221 286 245 122 139 98 92 45 10 22 11 0 0 1 1 0 0 0 0 0 0 0 0 0 0 0 0 0 0 0 3 9 2 2 4 13 10 13 25 21